Home   Weather   Gaziantep   Past weeks

Flag for Turkey Past Weather in Gaziantep, Turkey — Yesterday and Last 2 Weeks

Now
64 °F

Clear.


Feels Like: 64 °F
Forecast: 49 / 82 °F
Wind: 3 mph from Northwest

Location: Gaziantep Airport

Current Time: Oct 1, 2016 at 8:25:30 PM

Latest Report: Oct 1, 2016 at 7:50 PM


Visibility: 10 mi

Pressure: 30.04 "Hg (27.17 "Hg at 856m altitude)

Humidity: 34%

Dew Point: 36 °F

Location of GaziantepLocation

Past Weather in Gaziantep — Graph

°F

Gaziantep Temperature Yesterday

Maximum temperature yesterday: 79 °F (at 1:50 PM)
Minimum temperature yesterday: 54 °F (at 5:50 AM)
Average temperature yesterday: 68 °F

High & Low Weather Summary for the Past Weeks

 TemperatureHumidityPressure
High90 °F (Sep 19, 3:20 PM)94% (Sep 21, 6:50 AM)30.15 "Hg (Sep 21, 6:50 AM)
Low45 °F (Sep 26, 4:50 AM)9% (Sep 17, 6:20 PM)29.83 "Hg (Sep 16, 6:20 PM)
Average69 °F41%29.96 "Hg
* Reported Sep 16 6:20 PM — Oct 1 6:50 PM, Gaziantep, Weather by CustomWeather, © 2016

Note: Actual official high and low records may vary slightly from our data, if they occured in-between our weather recording intervals... More about our weather records

Advertising

Gaziantep Weather History for the Previous 24 Hours

Scroll right to see more
 ConditionsComfort  
Time TempWeatherWind HumidityBarometerVisibility
6:50 PM
Sat, Oct 1
70 °FClear.No wind27%30.04 "Hg10 mi
6:20 PM75 °FClear.No wind24%30.04 "Hg10 mi
5:50 PM77 °FPassing clouds.3 mph22%30.04 "HgN/A
5:20 PM79 °FSunny.5 mph20%30.04 "Hg10 mi
4:50 PM79 °FSunny.6 mph18%30.04 "Hg10 mi
4:20 PM79 °FSunny.6 mph18%30.04 "Hg10 mi
3:50 PM79 °FSunny.8 mph18%30.04 "Hg10 mi
3:20 PM79 °FPassing clouds.6 mph17%30.04 "HgN/A
2:50 PM81 °FPassing clouds.8 mph17%30.04 "HgN/A
2:20 PM79 °FPassing clouds.5 mph17%30.04 "HgN/A
1:50 PM79 °FPassing clouds.8 mph18%30.04 "HgN/A
1:20 PM77 °FPassing clouds.5 mph19%30.07 "HgN/A
12:50 PM79 °FPassing clouds.7 mph18%30.07 "HgN/A
12:20 PM77 °FPassing clouds.5 mph21%30.07 "HgN/A
11:50 AM75 °FPassing clouds.7 mph21%30.07 "HgN/A
11:20 AM75 °FPassing clouds.6 mph21%30.07 "HgN/A
10:50 AM75 °FSunny.10 mph21%30.07 "Hg10 mi
10:20 AM73 °FPassing clouds.10 mph22%30.07 "HgN/A
9:50 AM72 °FPassing clouds.10 mph23%30.07 "HgN/A
9:20 AM72 °FPassing clouds.9 mph23%30.07 "HgN/A
8:50 AM70 °FSunny.10 mph27%30.07 "Hg10 mi
8:20 AM66 °FPassing clouds.6 mph30%30.04 "HgN/A
7:50 AM59 °FSunny.2 mph42%30.04 "Hg10 mi
7:20 AM54 °FPassing clouds.10 mph47%30.04 "HgN/A
6:50 AM54 °FSunny.9 mph47%30.04 "Hg10 mi
6:20 AM55 °FClear.10 mph44%30.04 "Hg10 mi
5:50 AM54 °FPassing clouds.7 mph44%30.04 "HgN/A
5:20 AM54 °FClear.8 mph47%30.04 "Hg10 mi
4:50 AM54 °FClear.8 mph47%30.04 "Hg10 mi
4:20 AM57 °FClear.8 mph41%30.04 "Hg10 mi
3:50 AM59 °FPassing clouds.6 mph39%30.04 "HgN/A
3:20 AM59 °FClear.5 mph42%30.04 "Hg10 mi
2:50 AM61 °FClear.7 mph36%30.04 "Hg10 mi
2:20 AM59 °FClear.6 mph42%30.04 "Hg10 mi
1:50 AM59 °FPassing clouds.6 mph42%30.04 "HgN/A
1:20 AM61 °FClear.10 mph39%30.04 "Hg10 mi
12:50 AM63 °FClear.12 mph37%30.04 "Hg10 mi
12:20 AM64 °FClear.13 mph34%30.04 "Hg10 mi
11:50 PM
Fri, Sep 30
64 °FClear.13 mph37%30.04 "Hg10 mi
11:20 PM64 °FClear.18 mph37%30.01 "Hg10 mi
10:50 PM66 °FPassing clouds.10 mph35%30.04 "HgN/A
10:20 PM66 °FPassing clouds.10 mph35%30.04 "HgN/A
9:50 PM66 °FPassing clouds.10 mph35%30.04 "HgN/A
9:20 PM68 °FClear.13 mph33%30.04 "Hg10 mi
8:50 PM68 °FClear.13 mph33%30.04 "Hg10 mi
8:20 PM70 °FClear.16 mph31%30.01 "Hg10 mi
Weather by CustomWeather, © 2016

See weather overviewHow to use our weather pages